Tracking 26303 objects as of 1-Dec-2022
HD Live streaming from Space Station
objects crossing your sky now

COSMOS 1408 DEB

Track COSMOS 1408 DEB now!
10-day predictions


NORAD ID: 52590
Int'l Code: 1982-092BYX
Perigee: 357.0 km
Apogee: 388.6 km
Inclination: 82.6 °
Period: 91.9 minutes
Semi major axis: 6743 km
RCS: Unknown
Launch date: September 16, 1982
Source: Commonwealth of Independent States (former USSR) (CIS)
Launch site: PLESETSK MISSILE AND SPACE COMPLEX (PKMTR)

Note: This is SATELLITE DEBRIS
aabbcc
Your satellite tracking list
Your tracking list is empty




NASA's NSSDC Master Catalog

Two Line Element Set (TLE):
1 52590U 82092BYX 22334.32289289  .00092751  00000-0  83080-3 0  9995
2 52590  82.5951  94.0814 0023412 337.9153  22.1097 15.67650564 40080
Source of the keplerian elements: AFSPC